ECHOSTAR 1

Last updated on Jan. 9, 2018, 12:19 a.m. UTC

1 23754U 95073A   18008.44719448 -.00000020  00000-0  00000+0 0  9995
2 23754   1.2221  89.1269 0005417 193.5406 254.5080  0.98925579 80546
UTC
Height (km)
Latitude
Longitude
Inclination
Orbital Period
UTC large
Height (km)
Speed (km/s)
/
Latitude / Longitude
Inclination (degrees)
Orbital Period (minutes)
Azimuth
Elevation
Range (km)
Doppler Factor
iOS Compass Heading
iOS Angle

Next 30 passes for location: Hong Kong

Rise time Rise Azimuth (degrees) Set time Set Azimuth (degrees) Duration Max altitude (degrees)

No matching passes for this satellites